Voltar ao catálogo

STARLINK-32439

AtivoComunicaçõesVLEO
NORAD 61665·PAYLOAD·🇺🇸 United States

Lançado Oct 26, 2024 de Cape Canaveral Space Force Station

Loading…

Próximas Passagens (próximas 24 horas)

TLE

AtualizadoSource: CelesTrak SupGP

Época: Sep 15, 2026, 03:18 UTC

1 61665C 24193E   26258.13798611  .00006569  00000+0  19403-3 0  2585
2 61665  53.1582 290.5686 0001440  90.0947  89.8157 15.34393358    17

Acompanhe STARLINK-32439 em tempo real com AllMySat

Download on the App Store